Comanche, TX

5:45 AM CST on November 13, 2019 (GMT -0600)
Comanche

Weather History for KMKN - October, 2019

Change the Weather History Date:

Sunday, October 20, 2019

  Actual Average (KSEP) Record (KSEP)
Temperature  
Mean Temperature 72 °F -  
Max Temperature 90 °F 75 °F 91 °F (1979)
Min Temperature 53 °F 51 °F 32 °F (1976)
Cooling Degree Days 6    
Growing Degree Days 22 (Base 50)    
Moisture  
Dew Point 59 °F    
Average Humidity 63    
Maximum Humidity 87    
Minimum Humidity 39    
Precipitation  
Precipitation 0.00 in - - ()
Sea Level Pressure  
Sea Level Pressure 29.75 in    
Wind  
Wind Speed 8 mph ()    
Max Wind Speed 21 mph    
Max Gust Speed 30 mph    
Visibility 10.0 miles    
Events Thunderstorm    
Averages and records for this station are not official NWS values.
T = Trace of Precipitation, MM = Missing Value Source: Averaged Metar Reports

Daily Weather History Graph

Daily Weather History Graph

Search for Another Location

Airport or City:

Astronomy

Oct. 20, 2019 Rise Set
Actual Time 7:41 AM CDT 6:56 PM CDT
Civil Twilight 7:16 AM CDT 7:21 PM CDT
Nautical Twilight 6:48 AM CDT 7:49 PM CDT
Astronomical Twilight 6:19 AM CDT 8:18 PM CDT
Moon No Moon Rise 1:56 PM CDT (10/20)
Length of Visible Light 12h 04m
Length of Day
11h 15m
Waning Gibbous, 59% of the Moon is Illuminated
Oct 20
Waning Gibbous
Oct 21
Last Quarter
Oct 27
New
Nov 4
First Quarter
Nov 12
Full

Hourly Weather History & Observations

Time (CDT) Temp. Heat Index Dew Point Humidity Pressure Visibility Wind Dir Wind Speed Gust Speed Precip Events Conditions
12:15 AM 61.0 °F - 51.3 °F 70% 29.84 in 10.0 mi NNW 5.8 mph - N/A   Clear
12:35 AM 60.3 °F - 51.1 °F 72% 29.84 in 10.0 mi NNW 4.6 mph - N/A   Clear
12:55 AM 60.3 °F - 50.5 °F 70% 29.83 in 10.0 mi NNW 4.6 mph - N/A   Clear
1:15 AM 59.9 °F - 50.5 °F 71% 29.83 in 10.0 mi NNW 3.5 mph - N/A   Clear
1:35 AM 57.0 °F - 49.8 °F 77% 29.84 in 10.0 mi Calm Calm - N/A   Clear
1:55 AM 58.6 °F - 50.4 °F 74% 29.84 in 10.0 mi Calm Calm - N/A   Clear
2:15 AM 59.0 °F - 50.2 °F 73% 29.84 in 10.0 mi Calm Calm - N/A   Clear
2:55 AM 59.9 °F - 50.2 °F 70% 29.83 in 10.0 mi Calm Calm - N/A   Clear
3:15 AM 60.6 °F - 50.0 °F 68% 29.83 in 10.0 mi Calm Calm - N/A   Clear
3:35 AM 56.1 °F - 49.3 °F 78% 29.83 in 10.0 mi SSW 4.6 mph - N/A   Clear
3:55 AM 56.3 °F - 49.1 °F 77% 29.83 in 10.0 mi South 5.8 mph - N/A   Clear
4:15 AM 56.1 °F - 49.5 °F 78% 29.83 in 10.0 mi South 5.8 mph - N/A   Clear
4:35 AM 55.4 °F - 49.6 °F 81% 29.83 in 10.0 mi SSW 4.6 mph - N/A   Clear
4:55 AM 55.0 °F - 49.5 °F 81% 29.83 in 10.0 mi South 5.8 mph - N/A   Clear
5:15 AM 54.9 °F - 49.5 °F 82% 29.83 in 10.0 mi South 6.9 mph - N/A   Clear
5:35 AM 54.3 °F - 49.3 °F 83% 29.83 in 10.0 mi South 4.6 mph - N/A   Clear
5:55 AM 54.0 °F - 49.3 °F 84% 29.84 in 10.0 mi South 4.6 mph - N/A   Clear
6:15 AM 54.3 °F - 49.6 °F 84% 29.84 in 10.0 mi South 6.9 mph - N/A   Clear
6:35 AM 54.5 °F - 49.6 °F 84% 29.84 in 10.0 mi South 6.9 mph - N/A   Clear
6:55 AM 54.9 °F - 50.0 °F 84% 29.84 in 10.0 mi Calm Calm - N/A   Clear
7:15 AM 55.0 °F - 50.0 °F 83% 29.83 in 10.0 mi South 4.6 mph - N/A   Clear
7:35 AM 53.8 °F - 49.8 °F 86% 29.83 in 10.0 mi South 4.6 mph - N/A   Clear
7:55 AM 53.8 °F - 50.0 °F 87% 29.83 in 10.0 mi SSE 3.5 mph - N/A   Clear
8:15 AM 54.7 °F - 50.4 °F 85% 29.83 in 10.0 mi South 4.6 mph - N/A   Clear
8:35 AM 56.7 °F - 51.8 °F 84% 29.83 in 10.0 mi SSE 5.8 mph - N/A   Clear
8:55 AM 60.4 °F - 53.8 °F 79% 29.83 in 10.0 mi SSE 3.5 mph - N/A   Clear
9:15 AM 63.0 °F - 54.3 °F 73% 29.84 in 10.0 mi ESE 3.5 mph - N/A   Clear
9:35 AM 65.3 °F - 55.4 °F 70% 29.84 in 10.0 mi SSE 8.1 mph - N/A   Clear
9:55 AM 69.1 °F - 53.8 °F 58% 29.84 in 10.0 mi South 10.4 mph - N/A   Clear
10:15 AM 71.8 °F - 53.4 °F 52% 29.84 in 10.0 mi SSE 12.7 mph - N/A   Clear
10:35 AM 74.7 °F - 54.0 °F 48% 29.83 in 10.0 mi SSE 12.7 mph - N/A   Clear
10:55 AM 78.6 °F - 56.8 °F 47% 29.83 in 10.0 mi South 10.4 mph 17.3 mph N/A   Scattered Clouds
11:15 AM 80.6 °F 81.2 °F 59.5 °F 49% 29.82 in 10.0 mi South 8.1 mph - N/A   Mostly Cloudy
11:35 AM 82.4 °F 83.7 °F 63.7 °F 53% 29.82 in 10.0 mi SSW 18.4 mph 24.2 mph N/A   Scattered Clouds
11:55 AM 83.5 °F 85.3 °F 65.1 °F 54% 29.80 in 10.0 mi SSW 15.0 mph 21.9 mph N/A   Clear
12:15 PM 83.5 °F 85.3 °F 65.3 °F 54% 29.80 in 10.0 mi SW 13.8 mph 24.2 mph N/A   Clear
12:35 PM 83.8 °F 86.0 °F 66.2 °F 55% 29.79 in 10.0 mi SSW 16.1 mph 21.9 mph N/A   Clear
12:55 PM 83.7 °F 85.8 °F 66.0 °F 55% 29.78 in 10.0 mi SSW 12.7 mph - N/A   Clear
1:15 PM 85.1 °F 86.9 °F 65.3 °F 51% 29.76 in 10.0 mi SSW 15.0 mph 20.7 mph N/A   Clear
1:35 PM 87.1 °F 88.3 °F 63.9 °F 46% 29.75 in 10.0 mi South 13.8 mph - N/A   Clear
1:55 PM 87.8 °F 89.1 °F 64.0 °F 45% 29.73 in 10.0 mi SSW 13.8 mph 20.7 mph N/A   Clear
2:15 PM 89.1 °F 91.3 °F 65.7 °F 46% 29.71 in 10.0 mi SSW 18.4 mph 21.9 mph N/A   Clear
2:35 PM 88.9 °F 91.0 °F 65.8 °F 46% 29.70 in 10.0 mi SSW 15.0 mph 25.3 mph N/A   Clear
2:55 PM 89.6 °F 90.8 °F 64.0 °F 42% 29.69 in 10.0 mi South 16.1 mph 23.0 mph N/A   Scattered Clouds
3:15 PM 88.3 °F 89.5 °F 64.0 °F 44% 29.68 in 10.0 mi SSW 13.8 mph 21.9 mph N/A   Scattered Clouds
3:35 PM 88.7 °F 89.8 °F 63.5 °F 43% 29.67 in 10.0 mi South 18.4 mph 23.0 mph N/A   Scattered Clouds
3:55 PM 89.8 °F 91.0 °F 63.7 °F 42% 29.67 in 10.0 mi South 13.8 mph - N/A   Scattered Clouds
4:15 PM 87.4 °F 88.2 °F 62.8 °F 44% 29.66 in 10.0 mi South 11.5 mph 23.0 mph N/A   Scattered Clouds
4:35 PM 90.7 °F 91.3 °F 62.2 °F 39% 29.64 in 10.0 mi SSW 20.7 mph 27.6 mph N/A   Mostly Cloudy
4:55 PM 90.7 °F 91.3 °F 62.6 °F 39% 29.64 in 10.0 mi South 18.4 mph 29.9 mph N/A   Mostly Cloudy
5:15 PM 90.7 °F 91.3 °F 62.2 °F 39% 29.63 in 10.0 mi South 17.3 mph 23.0 mph N/A   Scattered Clouds
5:35 PM 86.7 °F 88.7 °F 65.5 °F 49% 29.63 in 10.0 mi South 17.3 mph 25.3 mph N/A   Mostly Cloudy
5:55 PM 86.2 °F 88.4 °F 66.2 °F 51% 29.63 in 10.0 mi South 16.1 mph 23.0 mph N/A   Mostly Cloudy
6:15 PM 85.1 °F 87.4 °F 66.4 °F 53% 29.62 in 10.0 mi South 15.0 mph 23.0 mph N/A   Scattered Clouds
6:35 PM 84.4 °F 86.8 °F 66.6 °F 55% 29.62 in 10.0 mi South 17.3 mph 24.2 mph N/A   Scattered Clouds
6:55 PM 83.3 °F 85.7 °F 66.4 °F 57% 29.62 in 10.0 mi South 15.0 mph 21.9 mph N/A   Scattered Clouds
7:15 PM 82.4 °F 84.6 °F 66.2 °F 58% 29.63 in 10.0 mi South 11.5 mph - N/A   Clear
7:35 PM 82.0 °F 83.9 °F 65.3 °F 57% 29.63 in 10.0 mi South 19.6 mph 24.2 mph N/A   Clear
7:55 PM 82.4 °F 84.2 °F 65.3 °F 56% 29.63 in 10.0 mi South 19.6 mph 27.6 mph N/A   Clear
8:15 PM 81.5 °F 83.4 °F 65.3 °F 58% 29.64 in 10.0 mi South 17.3 mph 25.3 mph N/A   Clear
8:35 PM 80.8 °F 82.6 °F 65.3 °F 59% 29.64 in 10.0 mi South 17.3 mph 23.0 mph N/A   Clear
8:55 PM 80.6 °F 82.5 °F 65.5 °F 60% 29.65 in 10.0 mi South 17.3 mph 26.5 mph N/A   Clear
9:15 PM 80.6 °F 82.7 °F 65.8 °F 61% 29.65 in 10.0 mi South 18.4 mph - N/A   Clear
9:35 PM 80.2 °F 82.3 °F 66.2 °F 62% 29.65 in 10.0 mi South 19.6 mph 24.2 mph N/A   Clear
9:55 PM 79.7 °F - 66.6 °F 64% 29.65 in 10.0 mi South 17.3 mph 25.3 mph N/A   Clear
10:15 PM 79.3 °F - 67.1 °F 66% 29.65 in 10.0 mi SSW 16.1 mph 27.6 mph N/A   Clear
10:35 PM 79.3 °F - 67.3 °F 66% 29.65 in 10.0 mi SSW 17.3 mph 24.2 mph N/A   Clear
10:55 PM 79.0 °F - 67.5 °F 68% 29.65 in 10.0 mi South 19.6 mph 24.2 mph N/A   Clear
11:15 PM 78.8 °F - 68.0 °F 69% 29.64 in 10.0 mi SSW 18.4 mph 25.3 mph N/A   Clear
11:35 PM 79.0 °F - 68.0 °F 69% 29.62 in 10.0 mi SSW 17.3 mph 24.2 mph N/A   Clear
11:55 PM 79.0 °F - 68.2 °F 69% 29.66 in 10.0 mi SSW 20.7 mph 25.3 mph N/A Thunderstorm Clear